[[{"header":{"parameterUnit":"m.s-1","parameterCategory":1,"la1":30.2991,"la2":30.254,"lo1":-89.0895,"lo2":-89.0444,"dy":0.0017,"dx":0.0017,"nx":28,"ny":28,"refTime":"2024-02-08T09:00:00:Z","depth":0,"parameterNumber":2,"parameterNumberName":"U-component_of_WINDS"},"data":[0,0,0,0,0,0,0,0,0,0,0,0,0,0,0,0,0,0,0,0,0,0,0,0,0,0,0,0,0,0,0,0,0,0,0,0,0,0,0,0,0,0,0,0,0,0,0,0,0,0,0,0,0,0,0,0,0,0,-4.2501,-4.2502,0,-4.2596,-4.2597,-4.2598,-4.2563,-4.256,-4.2558,-4.2556,-4.2652,-4.2656,-4.2661,0,0,0,0,0,0,0,0,0,0,0,0,0,-4.2287,-4.2291,-4.2501,-4.2502,-4.2503,-4.2596,-4.2597,-4.2599,-4.2563,-4.256,-4.2558,-4.2555,-4.265,-4.2656,-4.2661,0,0,0,0,0,0,0,0,0,0,0,0,0,-4.2381,-4.2292,-4.2501,-4.2497,-4.2497,-4.2596,-4.2597,-4.2599,-4.2563,-4.256,-4.2557,-4.2554,-4.2649,-4.2655,-4.2662,-4.277,0,0,-4.2683,-4.2686,0,0,0,0,0,0,0,0,-4.2375,-4.2389,-4.2496,-4.2497,-4.2498,-4.2564,-4.2557,-4.2656,-4.2564,-4.2538,-4.2556,-4.2552,-4.2625,-4.2634,-4.2659,-4.2774,-4.2778,-4.2684,-4.2688,-4.2691,-4.2693,0,0,0,0,0,0,0,-4.2369,-4.2384,-4.2538,-4.2498,-4.2499,-4.249,-4.2499,-4.2576,-4.2599,-4.254,-4.2538,-4.255,-4.2625,-4.2652,-4.2661,-4.278,-4.2683,-4.269,-4.2694,-4.2696,-4.2987,-4.2991,0,0,0,0,0,0,-4.2362,-4.2379,-4.2535,-4.2541,-4.2427,-4.2496,-4.2507,-4.2546,-4.2598,-4.2603,-4.2552,-4.2548,-4.2642,-4.2653,-4.2664,-4.2792,-4.2691,-4.2697,-4.2701,-4.2984,-4.2988,-4.2992,0,0,0,0,0,0,-4.2358,-4.2377,-4.2532,-4.246,-4.2479,-4.2503,-4.2548,-4.255,-4.2577,-4.2607,-4.2611,-4.2576,-4.264,-4.2654,-4.2744,-4.2795,-4.27,-4.2706,-4.2979,-4.2985,-4.299,-4.3049,0,0,0,0,0,0,-4.2352,-4.2375,-4.2416,-4.2461,-4.2483,-4.261,-4.2551,-4.2554,-4.2589,-4.2584,-4.263,-4.2635,-4.2639,-4.2734,-4.275,-4.2802,-4.2712,-4.2975,-4.2982,-4.2988,-4.3043,-4.3056,-4.3067,0,0,0,0,0,-4.2344,-4.2429,-4.2419,-4.2438,-4.2535,-4.2613,-4.2625,-4.2628,-4.2593,-4.2634,-4.2654,-4.2633,-4.2787,-4.2743,-4.2762,-4.2816,-4.2972,-4.298,-4.2988,-4.3037,-4.3053,-4.3067,0,0,0,0,0,0,-4.2389,-4.2435,-4.2424,-4.2525,-4.2566,-4.2607,-4.2659,-4.2646,-4.2696,-4.2689,-4.2691,-4.2701,-4.2793,-4.2814,-4.2764,-4.2923,-4.2874,-4.2886,-4.2905,-4.2921,-4.2933,-4.2924,-4.2718,0,0,0,0,0,-4.2411,-4.2471,-4.2508,-4.2594,-4.2615,-4.2634,-4.2668,-4.2667,-4.2708,-4.2725,-4.2751,-4.2792,-4.2849,-4.2887,-4.2941,-4.3047,-4.3056,-4.3094,-4.3106,-4.3116,-4.3126,-4.3182,-4.3199,-4.3019,-4.3018,-4.3018,0,0,-4.2456,-4.2489,-4.2526,-4.2604,-4.2635,-4.2696,-4.2648,-4.2715,-4.276,-4.2735,-4.282,-4.2841,-4.2887,-4.2984,-4.3029,-4.3005,-4.3178,-4.3127,-4.3134,-4.3138,-4.3192,-4.3209,-4.3224,-4.3024,-4.3023,-4.3022,0,0,-4.2569,-4.2601,-4.2675,-4.2708,-4.2756,-4.2768,-4.2786,-4.283,-4.2843,-4.2929,-4.2911,-4.2966,-4.3065,-4.3098,-4.3127,-4.3255,-4.3237,-4.3273,-4.3336,-4.3391,-4.3405,-4.3418,-4.3461,-4.3477,-4.3283,-4.3284,-4.3284,0,-4.2618,-4.2711,-4.2715,-4.2784,-4.2818,-4.28,-4.2875,-4.2906,-4.2969,-4.2993,-4.2966,-4.309,-4.312,-4.3224,-4.3255,-4.3281,-4.3301,-4.3266,-4.3403,-4.3416,-4.3427,-4.3469,-4.3485,-4.3287,-4.3287,-4.3287,-4.3286,0,-4.2768,-4.2833,-4.2888,-4.295,-4.2991,-4.3062,-4.3077,-4.3118,-4.3115,-4.313,-4.3217,-4.3253,-4.3314,-4.3339,-4.3336,-4.3443,-4.3427,-4.3402,-4.3352,-4.3448,-4.3487,-4.3503,-4.3293,-4.3292,-4.329,-4.329,0,0,-4.2909,-4.2974,-4.2994,-4.3021,-4.3074,-4.3124,-4.3195,-4.3255,-4.329,-4.3335,-4.3393,-4.3479,-4.3456,-4.349,-4.3491,-4.354,-4.3637,-4.3509,-4.351,-4.3529,-4.3755,-4.3771,-4.3789,-4.3627,-4.363,-4.3632,-4.375,0,-4.3024,-4.3148,-4.3155,-4.3268,-4.3327,-4.3312,-4.3374,-4.3413,-4.3429,-4.3482,-4.35,-4.356,-4.3526,-4.3546,-4.3594,-4.3615,-4.3681,-4.3607,-4.3679,-4.3682,-4.3665,-4.381,-4.3827,-4.3936,-4.3765,-4.3768,-4.377,0,-4.3174,-4.3224,-4.3343,-4.3387,-4.3412,-4.3468,-4.3524,-4.3575,-4.3619,-4.3627,-4.3666,-4.3661,-4.3733,-4.3684,-4.3783,-4.3732,-4.3763,-4.3778,-4.3782,-4.3786,-4.3729,-4.3815,-4.3971,-4.3987,-4.3794,-4.3792,-4.3791,0,-4.3261,-4.3359,-4.3442,-4.3467,-4.3522,-4.3561,-4.3585,-4.3626,-4.3662,-4.3712,-4.3735,-4.3792,-4.3823,-4.3867,-4.3877,-4.3841,-4.3976,-4.3927,-4.3983,-4.3983,-4.4009,-4.4007,-4.417,-4.4035,-4.4035,-4.4034,-4.4034,0,-4.3387,-4.3459,-4.3482,-4.3533,-4.3614,-4.3622,-4.3702,-4.3724,-4.3761,-4.3815,-4.3807,-4.3858,-4.387,-4.3924,-4.3932,-4.4012,-4.4027,-4.4035,-4.4035,-4.4034,-4.4032,-4.4051,-4.4042,-4.4039,-4.4038,-4.4037,-4.4036,0,-4.3496,-4.3514,-4.3604,-4.3649,-4.3662,-4.372,-4.3758,-4.3807,-4.3824,-4.3893,-4.391,-4.3936,-4.3999,-4.4014,-4.4089,-4.4095,-4.4188,-4.4184,-4.4173,-4.4172,-4.4226,-4.422,-4.4404,-4.4428,-4.428,-4.4282,-4.4283,0,-4.3573,-4.3629,-4.368,-4.3717,-4.3743,-4.3802,-4.3839,-4.385,-4.3888,-4.3943,-4.3985,-4.4048,-4.4097,-4.4199,-4.4224,-4.4281,-4.4276,-4.4337,-4.4284,-4.428,-4.4273,-4.4268,-4.4273,-4.4345,-4.4347,-4.4348,-4.4349,0,-4.3708,-4.3714,-4.3768,-4.3826,-4.387,-4.3916,-4.396,-4.399,-4.4007,-4.4051,-4.4115,-4.4154,-4.4232,-4.4293,-4.4351,-4.4375,-4.4365,-4.4366,-4.4382,-4.4378,-4.4369,-4.4372,-4.4197,-4.4361,-4.436,-4.4359,-4.4358,-4.4358,-4.3801,-4.3849,-4.3893,-4.3954,-4.3988,-4.4029,-4.4077,-4.4101,-4.4155,-4.4218,-4.4222,-4.4292,-4.4335,-4.4412,-4.4441,-4.4495,-4.4476,-4.4499,-4.4505,-4.4509,-4.4513,-4.4364,-4.4506,-4.4506,-4.4506,-4.4505,-4.4505,0,-4.3932,-4.3961,-4.4016,-4.4078,-4.4126,-4.4114,-4.4162,-4.4202,-4.4263,-4.4305,-4.4355,-4.4429,-4.4489,-4.452,-4.4579,-4.4617,-4.4613,-4.4632,-4.4627,-4.4633,-4.4527,-4.4507,-4.4633,-4.4633,-4.4633,-4.4633,-4.4633,-4.4633,-4.4006,-4.4087,-4.4099,-4.4197,-4.4225,-4.4293,-4.4321,-4.4359,-4.4392,-4.4476,-4.4526,-4.4546,-4.4583,-4.4646,-4.47,-4.4707,-4.4728,-4.4749,-4.4753,-4.4654,-4.464,-4.4628,-4.4608,-4.4754,-4.4754,-4.4854,-4.4855,-4.4855]},{"header":{"parameterUnit":"m.s-1","parameterCategory":1,"la1":30.2991,"la2":30.254,"lo1":-89.0895,"lo2":-89.0444,"dy":0.0017,"dx":0.0017,"nx":28,"ny":28,"refTime":"2024-02-08T09:00:00:Z","depth":0,"parameterNumber":3,"parameterNumberName":"V-component_of_WINDS"},"data":[0,0,0,0,0,0,0,0,0,0,0,0,0,0,0,0,0,0,0,0,0,0,0,0,0,0,0,0,0,0,0,0,0,0,0,0,0,0,0,0,0,0,0,0,0,0,0,0,0,0,0,0,0,0,0,0,0,0,1.957,1.9571,0,1.9673,1.9674,1.9675,1.9652,1.965,1.9648,1.9647,1.9754,1.9758,1.9763,0,0,0,0,0,0,0,0,0,0,0,0,0,1.9358,1.9362,1.957,1.9571,1.9572,1.9673,1.9674,1.9676,1.9653,1.965,1.9648,1.9646,1.9752,1.9758,1.9763,0,0,0,0,0,0,0,0,0,0,0,0,0,1.9454,1.9363,1.957,1.9573,1.9574,1.9673,1.9674,1.9676,1.9653,1.965,1.9647,1.9645,1.975,1.9757,1.9764,1.9866,0,0,1.9785,1.9788,0,0,0,0,0,0,0,0,1.9449,1.9462,1.9571,1.9573,1.9575,1.9647,1.9639,1.974,1.9654,1.9623,1.9647,1.9643,1.9721,1.973,1.9756,1.9871,1.9875,1.9786,1.979,1.9793,1.9795,0,0,0,0,0,0,0,1.9442,1.9457,1.9611,1.9573,1.9575,1.9571,1.9581,1.9658,1.9687,1.9626,1.9624,1.9637,1.9721,1.9749,1.9758,1.9877,1.9786,1.9792,1.9796,1.9799,2.0086,2.0089,0,0,0,0,0,0,1.9433,1.9452,1.9607,1.9614,1.9503,1.9577,1.9589,1.9627,1.9686,1.9692,1.9639,1.9635,1.9738,1.975,1.9762,1.9888,1.9793,1.98,1.9804,2.0083,2.0087,2.0091,0,0,0,0,0,0,1.9429,1.9447,1.9603,1.9533,1.9552,1.9584,1.9627,1.963,1.9658,1.9696,1.9702,1.9662,1.9737,1.9752,1.9841,1.9891,1.9803,1.9809,2.0079,2.0084,2.0089,2.0139,0,0,0,0,0,0,1.9423,1.9446,1.9483,1.9534,1.9556,1.968,1.9629,1.9634,1.967,1.9666,1.9719,1.9725,1.9735,1.9831,1.9848,1.9899,1.9815,2.0074,2.0081,2.0087,2.0133,2.0145,2.0156,0,0,0,0,0,1.9415,1.9493,1.9485,1.9504,1.9603,1.9682,1.9695,1.9705,1.9674,1.9713,1.9739,1.9724,1.9883,1.984,1.9859,1.9913,2.0071,2.0079,2.0087,2.0128,2.0143,2.0155,0,0,0,0,0,0,1.9447,1.9499,1.9492,1.9587,1.9631,1.9678,1.9727,1.972,1.9773,1.9767,1.9777,1.979,1.9882,1.9906,1.9858,2.0018,1.9973,1.9985,1.9998,2.0012,2.0023,2.0016,1.9821,0,0,0,0,0,1.9465,1.9524,1.9567,1.9647,1.9669,1.9695,1.973,1.9734,1.9779,1.9798,1.9829,1.9875,1.9936,1.9975,2.0033,2.0137,2.015,2.0184,2.0195,2.0204,2.0215,2.0276,2.0292,2.0116,2.0116,2.0116,0,0,1.9503,1.9539,1.9575,1.9654,1.9688,1.9751,1.971,1.9777,1.9825,1.9808,1.9895,1.992,1.9972,2.007,2.0115,2.0094,2.0267,2.0214,2.0221,2.0227,2.0285,2.0302,2.0317,2.0121,2.012,2.0119,0,0,1.9604,1.9636,1.9708,1.9744,1.9797,1.9814,1.9832,1.9882,1.9899,1.9986,1.9976,2.0034,2.0137,2.0176,2.0209,2.033,2.032,2.0349,2.0408,2.0467,2.0481,2.0494,2.054,2.0556,2.0359,2.0359,2.0359,0,1.9644,1.9737,1.9746,1.9816,1.9853,1.9842,1.9917,1.9951,2.002,2.0047,2.0022,2.0155,2.0189,2.0298,2.0328,2.0355,2.0377,2.0343,2.0478,2.0491,2.0503,2.0547,2.0564,2.0363,2.0362,2.0362,2.0362,0,1.9786,1.9851,1.9903,1.9971,2.0014,2.0086,2.0108,2.0151,2.0153,2.0174,2.0266,2.0307,2.0374,2.0401,2.0402,2.0512,2.0497,2.0476,2.0431,2.0523,2.0565,2.0582,2.0367,2.0366,2.0365,2.0364,0,0,1.9907,1.9982,2.0002,2.0034,2.0094,2.0145,2.0219,2.0285,2.0323,2.0373,2.0436,2.0526,2.0508,2.0546,2.0552,2.0604,2.0703,2.0577,2.0578,2.0601,2.083,2.0847,2.0866,2.0696,2.0699,2.0702,2.0826,0,2.0015,2.0143,2.0156,2.0271,2.0334,2.0327,2.0391,2.0436,2.0459,2.0516,2.0542,2.0607,2.0576,2.06,2.0651,2.068,2.0749,2.0671,2.0757,2.076,2.0745,2.0887,2.0904,2.1019,2.0842,2.0845,2.0847,0,2.0157,2.0212,2.0334,2.039,2.0416,2.0473,2.0538,2.0593,2.0645,2.0659,2.0703,2.0704,2.0783,2.0736,2.0846,2.0792,2.0829,2.0849,2.0854,2.0863,2.0809,2.0902,2.1056,2.1074,2.0872,2.087,2.0868,0,2.0236,2.0341,2.0428,2.0456,2.0522,2.0564,2.0593,2.0643,2.0684,2.0741,2.0769,2.0834,2.087,2.0922,2.0942,2.0905,2.1052,2.1006,2.1067,2.1067,2.1098,2.1096,2.1262,2.112,2.112,2.1119,2.1119,0,2.0356,2.0431,2.0465,2.0519,2.0605,2.0621,2.0706,2.0734,2.0779,2.0841,2.0839,2.0896,2.0918,2.0981,2.0997,2.1088,2.1103,2.1118,2.1122,2.1119,2.1118,2.1143,2.1137,2.1124,2.1123,2.1122,2.1121,0,2.0458,2.0483,2.0579,2.0635,2.0651,2.0712,2.0761,2.0815,2.0838,2.0916,2.0936,2.0973,2.1047,2.1072,2.116,2.1172,2.1278,2.1274,2.126,2.1261,2.1323,2.1317,2.1512,2.154,2.1378,2.1379,2.138,0,2.0533,2.0591,2.0655,2.0696,2.0728,2.0793,2.0836,2.0855,2.09,2.0967,2.1014,2.1087,2.1147,2.1266,2.1301,2.1371,2.1369,2.1433,2.138,2.1377,2.1373,2.137,2.1378,2.1443,2.1445,2.1446,2.1447,0,2.0665,2.0676,2.0737,2.0804,2.0855,2.0909,2.0961,2.0995,2.1023,2.1074,2.115,2.1196,2.1289,2.1363,2.1435,2.1467,2.1464,2.1464,2.1482,2.1481,2.1472,2.148,2.1289,2.1459,2.1458,2.1457,2.1456,2.1456,2.0757,2.081,2.0865,2.0934,2.0976,2.1026,2.1081,2.1112,2.1176,2.1253,2.1261,2.1344,2.1399,2.1495,2.1532,2.1598,2.1581,2.1606,2.1613,2.162,2.1626,2.146,2.1611,2.1611,2.161,2.161,2.161,0,2.0891,2.0926,2.099,2.1065,2.1121,2.1112,2.1171,2.1219,2.1291,2.1344,2.1404,2.1493,2.1566,2.161,2.1684,2.1729,2.1729,2.1748,2.1745,2.1754,2.1636,2.1614,2.1747,2.1747,2.1747,2.1747,2.1747,2.1747,2.0967,2.1058,2.1076,2.1189,2.1225,2.1306,2.1341,2.1388,2.143,2.1531,2.1592,2.162,2.167,2.1748,2.1816,2.1827,2.1856,2.1876,2.1886,2.1775,2.1761,2.1748,2.1727,2.1882,2.1882,2.1999,2.2,2.2001]}]]